Weather observations for the past three days for
Mammoth Yosemite Airport
Imperial (Metric)
Date Time (pdt) Wind (mph) Vis. (mi.) Weather Sky Cond. Temperature (ºF) Relative Humidity Wind Chill (°F) Heat Index (°F) Pressure Precipitation (in)
Air Dwpt 6 hour altimeter (in) sea level (mb) 1 hr 3 hr 6 hr
Max. Min.
07 04:55 Vrbl 5 10.00 Fair CLR 37.4 26.6 65% 34 30.28 0.0
07 04:35 Vrbl 5 10.00 Fair CLR 37.4 26.6 65% 34 30.29 0.0
07 04:15 Vrbl 5 10.00 Fair CLR 39.2 26.6 61% 36 30.29 0.0
07 03:55 W 12 10.00 Fair CLR 39.2 26.6 61% 33 30.29 0.0
07 03:35 W 12 10.00 Fair CLR 39.2 26.6 61% 33 30.29 0.0
07 03:15 W 12 10.00 Fair CLR 41 26.6 57% 35 30.29 0.0
07 02:55 W 13 10.00 Fair CLR 39.2 26.6 61% 32 30.29 0.0
07 02:35 Vrbl 3 10.00 Fair CLR 39.2 28.4 65% 30.3 0.0
07 02:15 W 5 10.00 Fair CLR 39.2 28.4 65% 36 30.3 0.0
07 01:55 W 12 10.00 Fair CLR 44.6 26.6 49% 39 30.31 0.0
07 01:35 W 12 10.00 Fair CLR 42.8 28.4 57% 37 30.31 0.0
07 01:15 W 13 10.00 Fair CLR 41 28.4 61% 34 30.31 0.0
07 00:55 W 8 10.00 Fair CLR 42.8 28.4 57% 39 30.31 0.0
07 00:35 W 8 10.00 Fair CLR 42.8 28.4 57% 39 30.32 0.0
07 00:15 W 9 10.00 Fair CLR 42.8 28.4 57% 38 30.31 0.0
06 23:55 W 13 10.00 Fair CLR 42.8 30.2 61% 37 30.31 0.0
06 23:35 W 13 10.00 Fair CLR 42.8 30.2 61% 37 30.31 0.0
06 23:15 W 13 10.00 Fair CLR 44.6 28.4 53% 39 30.3 0.0
06 22:55 W 12 10.00 Fair CLR 44.6 30.2 57% 39 30.3 0.0
06 22:35 Vrbl 6 G 15 10.00 Fair CLR 46.4 30.2 53% 44 30.3 0.0
06 22:15 W 6 10.00 Fair CLR 44.6 30.2 57% 42 30.3 0.0
06 21:55 Vrbl 5 10.00 Fair CLR 46.4 30.2 53% 45 30.29 0.0
06 21:35 Calm 10.00 Fair CLR 48.2 30.2 50% 30.28 0.0
06 21:15 Vrbl 5 10.00 Fair CLR 48.2 30.2 50% 47 30.28 0.0
06 20:55 Vrbl 6 10.00 Fair CLR 51.8 30.2 44% 30.27 0.0
06 20:35 Calm 10.00 Fair CLR 51.8 30.2 44% 30.26 0.0
06 20:15 Calm 10.00 Fair CLR 51.8 30.2 44% 30.25 0.0
06 19:55 Calm 10.00 Fair CLR 55.4 32 41% 30.24 0.0
06 19:35 Calm 10.00 Fair CLR 60.8 26.6 27% 30.23 0.0
06 19:15 NE 6 10.00 Fair CLR 62.6 26.6 25% 30.23 0.0
06 18:55 NE 5 10.00 Fair CLR 62.6 26.6 25% 30.23 0.0
06 18:35 N 7 G 16 10.00 Fair CLR 62.6 28.4 27% 30.23 0.0
06 18:15 NE 10 10.00 Fair CLR 64.4 24.8 22% 30.23 0.0
06 17:55 E 8 G 14 10.00 Fair CLR 66.2 26.6 22% 30.23 0.0
06 17:35 NE 9 10.00 A Few Clouds FEW085 62.6 26.6 25% 30.22 0.0
06 17:15 N 6 10.00 Mostly Cloudy BKN085 64.4 26.6 24% 30.22 0.0
06 16:55 N 10 10.00 Mostly Cloudy BKN085 66.2 26.6 22% 30.21 0.0
06 16:35 Vrbl 5 10.00 A Few Clouds FEW085 64.4 24.8 22% 30.21 0.0
06 16:15 Calm 10.00 Fair CLR 64.4 23 21% 30.21 0.0
06 15:55 E 8 G 20 10.00 Fair CLR 66.2 23 19% 30.22 0.0
06 15:35 E 8 10.00 Partly Cloudy SCT080 66.2 26.6 22% 30.22 0.0
06 15:15 NE 8 10.00 Partly Cloudy SCT080 SCT090 64.4 28.4 26% 30.23 0.0
06 14:55 Calm 10.00 Partly Cloudy FEW080 SCT090 64.4 28.4 26% 30.23 0.0
06 14:35 NE 6 G 14 10.00 Fair CLR 64.4 28.4 26% 30.24 0.0
06 14:15 E 10 G 20 10.00 A Few Clouds FEW070 66.2 30.2 26% 30.24 0.0
06 13:55 NE 7 G 14 10.00 Mostly Cloudy BKN070 BKN080 62.6 30.2 30% 30.24 0.0
06 13:35 Vrbl 5 G 14 10.00 Mostly Cloudy BKN070 BKN080 62.6 30.2 30% 30.24 0.0
06 13:15 Vrbl 6 G 16 10.00 Partly Cloudy SCT070 62.6 30.2 30% 30.24 0.0
06 12:55 Vrbl 7 G 14 10.00 Fair CLR 62.6 26.6 25% 30.24 0.0
06 12:35 Vrbl 7 G 14 10.00 Fair CLR 60.8 28.4 29% 30.25 0.0
06 12:15 N 9 10.00 A Few Clouds FEW065 60.8 28.4 29% 30.25 0.0
06 11:55 N 7 10.00 Mostly Cloudy BKN065 59 28.4 31% 30.25 0.0
06 11:35 NW 5 G 12 10.00 Overcast OVC060 59 30.2 34% 30.25 0.0
06 11:15 Vrbl 7 10.00 Overcast BKN060 OVC070 57.2 30.2 36% 30.25 0.0
06 10:55 NW 8 10.00 Mostly Cloudy BKN060 BKN070 59 32 36% 30.25 0.0
06 10:35 Vrbl 6 G 16 10.00 Partly Cloudy SCT060 SCT070 59 32 36% 30.25 0.0
06 10:15 NE 5 G 12 10.00 A Few Clouds FEW060 FEW070 57.2 30.2 36% 30.24 0.0
06 09:55 Vrbl 6 G 13 10.00 Fair CLR 57.2 30.2 36% 30.25 0.0
06 09:35 Calm 10.00 A Few Clouds FEW060 57.2 32 39% 30.24 0.0
06 09:15 SE 3 10.00 A Few Clouds FEW060 55.4 33.8 44% 30.24 0.0
06 08:55 Calm 10.00 Fair CLR 53.6 33.8 47% 30.24 0.0
06 08:35 Calm 10.00 Fair CLR 50 35.6 58% 30.23 0.0
06 08:15 Calm 10.00 Fair CLR 48.2 37.4 66% 30.23 0.0
06 07:55 Calm 10.00 Fair CLR 46.4 37.4 71% 30.23 0.0
06 07:35 N 5 10.00 Partly Cloudy SCT060 42.8 37.4 81% 41 30.23 0.0
06 07:15 NW 6 10.00 Overcast OVC060 41 33.8 76% 38 30.22 0.0
06 06:55 NW 5 10.00 Overcast OVC065 35.6 32 87% 32 30.22 0.0
06 06:35 N 3 10.00 Mostly Cloudy BKN065 33.8 30.2 87% 30.2 0.0
06 06:15 NW 3 10.00 A Few Clouds FEW080 32 30.2 93% 30.2 0.0
06 05:55 W 7 10.00 A Few Clouds FEW080 33.8 32 93% 28 30.19 0.0
06 05:35 Calm 10.00 Partly Cloudy SCT070 33.8 30.2 87% 30.18 0.0
06 05:15 Vrbl 5 10.00 A Few Clouds FEW070 35.6 30.2 81% 32 30.17 0.0
06 04:55 W 6 10.00 Fair CLR 33.8 30.2 87% 29 30.17 0.0
06 04:35 Calm 10.00 Fair CLR 33.8 30.2 87% 30.17 0.0
06 04:15 Vrbl 5 10.00 Fair CLR 35.6 32 87% 32 30.17 0.0
06 03:55 N 3 10.00 Fair CLR 35.6 32 87% 30.16 0.0
06 03:35 Calm 10.00 Fair CLR 37.4 32 81% 30.16 0.0
06 03:15 W 12 10.00 Fair CLR 37.4 32 81% 30 30.16 0.0
06 02:55 Vrbl 5 10.00 Fair CLR 35.6 32 87% 32 30.15 0.0
06 02:35 W 8 10.00 Fair CLR 37.4 32 81% 32 30.15 0.0
06 02:15 W 8 10.00 Fair CLR 37.4 32 81% 32 30.15 0.0
06 01:55 NW 3 10.00 Fair CLR 37.4 32 81% 30.14 0.0
06 01:35 Calm 10.00 A Few Clouds FEW065 35.6 32 87% 30.14 0.0
06 01:15 NW 3 10.00 Partly Cloudy SCT060 SCT065 SCT075 37.4 32 81% 30.14 0.0
06 00:55 Vrbl 6 10.00 Overcast OVC060 41 33.8 76% 38 30.15 0.0
06 00:35 W 7 10.00 Mostly Cloudy SCT060 BKN080 37.4 33.8 87% 33 30.14 0.0
06 00:15 NW 5 10.00 Partly Cloudy FEW095 SCT120 37.4 32 81% 34 30.13 0.0
05 23:55 Calm 10.00 Overcast SCT070 BKN090 OVC110 41 33.8 76% 30.13 0.0
05 23:15 W 7 10.00 Mostly Cloudy BKN110 41 33.8 76% 37 30.12 0.0
05 22:55 W 8 10.00 Partly Cloudy SCT120 39.2 33.8 81% 34 30.12 0.0
05 22:35 W 5 10.00 Fair CLR 41 33.8 76% 38 30.11 0.0
05 22:15 W 5 10.00 Fair CLR 39.2 33.8 81% 36 30.11 0.0
05 21:55 SW 10 10.00 Fair CLR 42.8 33.8 71% 38 30.09 0.0
05 21:35 W 10 10.00 Fair CLR 42.8 33.8 71% 38 30.1 0.0
05 21:15 W 8 10.00 Fair CLR 42.8 33.8 71% 39 30.09 0.0
05 20:55 W 9 10.00 Fair CLR 44.6 33.8 66% 40 30.08 0.0
05 20:35 W 8 10.00 Fair CLR 44.6 33.8 66% 41 30.07 0.0
05 20:15 Calm 10.00 Fair CLR 46.4 32 57% 30.06 0.0
05 19:55 W 5 10.00 Fair CLR 48.2 32 54% 47 30.05 0.0
05 19:35 NW 10 10.00 Fair CLR 48.2 32 54% 44 30.04 0.0
05 19:15 NW 12 10.00 Partly Cloudy SCT070 SCT075 50 32 50% 46 30.03 0.0
05 18:55 NW 8 G 14 10.00 Overcast OVC070 51.8 30.2 44% 30.03 0.0
05 18:35 NW 9 10.00 Mostly Cloudy FEW043 SCT049 BKN055 51.8 30.2 44% 30.02 0.0
05 18:15 W 5 10.00 Overcast SCT045 BKN065 OVC085 50 32 50% 49 30.02 0.0
05 17:55 SW 8 10.00 Overcast SCT070 OVC080 50 32 50% 47 30.01 0.0
05 17:35 W 10 10.00 Overcast BKN070 OVC080 51.8 32 47% 30 0.0
05 17:15 W 13 10.00 Overcast FEW038 BKN070 OVC090 51.8 32 47% 30 0.0
05 16:55 Vrbl 6 10.00 Overcast BKN036 BKN080 OVC095 50 33.8 54% 48 30 0.0
05 16:35 SW 14 10.00 Mostly Cloudy FEW022 BKN034 BKN110 48.2 37.4 66% 43 30 0.0
05 16:15 Vrbl 5 9.00 Light Drizzle FEW016 SCT043 BKN100 46.4 33.8 62% 45 30.01 0.0
05 15:55 N 14 10.00 Overcast BKN044 BKN055 OVC065 48.2 33.8 58% 43 30 0.0
05 15:35 N 16 10.00 Overcast SCT043 BKN050 OVC120 50 33.8 54% 45 29.99 0.0
05 15:15 NW 16 G 23 10.00 Mostly Cloudy SCT043 BKN050 BKN060 50 32 50% 45 29.99 0.0
05 14:55 SW 6 10.00 Partly Cloudy FEW045 FEW060 SCT120 50 32 50% 48 29.99 0.0
05 14:35 Calm 10.00 Mostly Cloudy FEW033 SCT060 BKN070 48.2 32 54% 29.99 0.0
05 14:15 NW 7 10.00 Overcast BKN033 OVC060 48.2 32 54% 46 29.99 0.0
05 13:55 Calm 10.00 Mostly Cloudy SCT032 BKN038 50 32 50% 29.99 0.0
05 13:35 Vrbl 3 10.00 Partly Cloudy SCT035 SCT043 48.2 30.2 50% 29.99 0.0
05 13:15 Vrbl 5 10.00 Mostly Cloudy FEW025 BKN034 BKN039 46.4 33.8 62% 45 30 0.0
05 12:55 Calm 10.00 Mostly Cloudy FEW020 SCT038 BKN050 44.6 35.6 71% 30 0.0
05 12:35 Vrbl 7 G 13 10.00 Overcast SCT021 BKN029 OVC044 44.6 35.6 71% 41 30.01 0.0
05 12:15 NW 10 10.00 Mostly Cloudy FEW019 SCT027 BKN040 46.4 37.4 71% 42 30 0.0
05 11:55 Calm 10.00 Mostly Cloudy FEW017 SCT032 BKN040 42.8 35.6 76% 29.99 0.0
05 11:35 Vrbl 5 10.00 Light Drizzle FEW020 BKN033 OVC039 41 35.6 81% 38 29.99 0.0
05 11:15 W 5 10.00 Light Drizzle FEW015 SCT026 OVC033 41 35.6 81% 38 29.99 0.0
05 10:55 W 6 10.00 Overcast SCT027 OVC035 41 35.6 81% 38 29.98 0.0
05 10:35 W 3 10.00 Overcast FEW015 BKN028 OVC040 41 35.6 81% 29.97 0.0
05 10:15 W 6 10.00 Overcast SCT031 BKN041 OVC048 39.2 35.6 87% 36 29.96 0.0
05 09:55 W 5 10.00 Mostly Cloudy FEW024 BKN032 BKN039 37.4 35.6 93% 34 29.96 0.0
05 09:35 W 7 9.00 Light Rain FEW018 BKN035 BKN040 37.4 35.6 93% 33 29.96 0.0
05 09:15 W 5 9.00 Light Rain FEW005 BKN018 BKN039 35.6 33.8 93% 32 29.95 0.0
05 08:55 W 3 9.00 Light Snow BKN019 BKN024 OVC047 33.8 33.8 100% 29.95 0.0
05 08:35 W 6 3.00 Light Snow Fog/Mist FEW007 OVC020 33.8 33.8 100% 29 29.94 0.0
05 08:15 W 7 2.00 Light Snow Fog/Mist SCT005 BKN009 BKN022 33.8 33.8 100% 28 29.93 0.0
05 07:55 SW 3 1.50 Light Snow Fog/Mist BKN004 OVC007 33.8 33.8 100% 29.93 0.0
05 07:35 SE 3 5.00 Unknown Precip Fog/Mist FEW007 35.6 33.8 93% 29.92 0.0
05 07:15 E 5 7.00 Unknown Precip FEW007 35.6 33.8 93% 32 29.92 0.0
05 06:55 E 5 7.00 Unknown Precip FEW010 SCT031 35.6 33.8 93% 32 29.91 0.0
05 06:35 SE 7 10.00 Light Drizzle OVC031 35.6 35.6 100% 31 29.9 0.0
05 06:15 SE 6 10.00 Overcast BKN034 OVC050 35.6 33.8 93% 31 29.9 0.0
05 05:55 Calm 10.00 Overcast BKN035 OVC050 35.6 33.8 93% 29.89 0.0
05 05:35 Calm 10.00 Overcast FEW026 OVC034 35.6 33.8 93% 29.89 0.0
05 05:15 Calm 10.00 Mostly Cloudy FEW004 SCT011 BKN033 35.6 33.8 93% 29.89 0.0
05 04:55 Calm 9.00 Light Drizzle SCT007 BKN029 OVC050 35.6 35.6 100% 29.9 0.0
05 04:35 N 3 10.00 Overcast SCT006 BKN026 OVC036 35.6 33.8 93% 29.9 0.0
05 04:15 Calm 10.00 Overcast BKN005 OVC008 35.6 33.8 93% 29.91 0.0
05 03:55 Calm 10.00 Overcast BKN005 BKN019 OVC042 35.6 35.6 100% 29.9 0.0
05 03:35 N 5 10.00 Unknown Precip BKN005 BKN021 OVC029 35.6 35.6 100% 32 29.9 0.0
05 03:15 N 3 9.00 Light Rain BKN004 BKN010 OVC029 35.6 35.6 100% 29.9 0.0
05 02:55 Calm 9.00 Light Rain OVC004 35.6 35.6 100% 29.91 0.0
05 02:35 Calm 10.00 Light Rain OVC004 35.6 35.6 100% 29.91 0.0
05 02:15 E 5 10.00 Overcast OVC004 35.6 35.6 100% 32 29.92 0.0
05 01:55 E 7 10.00 Overcast BKN004 OVC009 35.6 35.6 100% 31 29.93 0.0
05 01:35 E 5 10.00 Overcast SCT004 BKN009 OVC012 35.6 35.6 100% 32 29.93 0.0
05 01:15 SE 6 10.00 Light Drizzle BKN009 OVC012 35.6 33.8 93% 31 29.93 0.0
05 00:55 SE 7 10.00 Overcast BKN010 OVC016 35.6 35.6 100% 31 29.94 0.0
05 00:35 SE 8 10.00 Light Drizzle SCT010 BKN015 OVC050 37.4 35.6 93% 32 29.94 0.0
05 00:15 E 7 10.00 Light Drizzle BKN013 BKN023 OVC060 37.4 33.8 87% 33 29.94 0.0
04 23:55 E 7 10.00 Light Drizzle BKN013 BKN024 OVC060 39.2 35.6 87% 35 29.94 0.0
04 23:35 E 7 10.00 Light Rain FEW016 SCT022 BKN050 39.2 35.6 87% 35 29.93 0.0
04 23:15 E 12 10.00 Overcast BKN034 BKN043 OVC055 39.2 33.8 81% 33 29.94 0.0
04 22:55 E 8 10.00 Overcast FEW036 OVC047 39.2 32 75% 34 29.93 0.0
04 22:35 E 8 10.00 Mostly Cloudy FEW041 SCT048 BKN060 41 33.8 76% 36 29.94 0.0
04 22:15 E 7 10.00 Overcast OVC070 41 32 70% 37 29.93 0.0
04 21:55 E 7 10.00 Overcast OVC070 39.2 33.8 81% 35 29.93 0.0
04 21:35 E 8 10.00 Overcast OVC070 41 32 70% 36 29.93 0.0
04 21:15 E 10 10.00 Overcast OVC075 41 32 70% 35 29.92 0.0
04 20:55 Calm 10.00 Overcast SCT060 OVC075 41 28.4 61% 29.91 0.0
04 20:35 Calm 10.00 Overcast SCT060 OVC070 42.8 28.4 57% 29.9 0.0
04 20:15 NW 8 10.00 Overcast BKN065 OVC075 42.8 28.4 57% 39 29.9 0.0
04 19:55 N 5 10.00 Overcast FEW055 OVC075 42.8 28.4 57% 41 29.9 0.0
04 19:35 NW 10 10.00 Overcast FEW036 BKN055 OVC075 44.6 28.4 53% 40 29.9 0.0
04 19:15 Calm 10.00 Mostly Cloudy FEW048 BKN055 BKN070 44.6 26.6 49% 29.9 0.0
04 18:55 Vrbl 3 G 17 10.00 Overcast OVC055 44.6 28.4 53% 29.9 0.0
04 18:35 NW 12 G 21 10.00 Overcast BKN055 OVC065 44.6 30.2 57% 39 29.89 0.0
04 18:15 NW 16 G 23 10.00 Overcast FEW050 OVC065 46.4 30.2 53% 40 29.89 0.0
04 17:55 NW 17 G 24 10.00 Mostly Cloudy SCT065 BKN075 48.2 30.2 50% 42 29.89 0.0
04 17:35 NW 20 10.00 A Few Clouds FEW075 FEW090 48.2 28.4 46% 42 29.88 0.0
04 17:15 NW 15 G 26 10.00 Fair CLR 48.2 28.4 46% 43 29.88 0.0
04 16:55 NW 15 G 25 10.00 Fair CLR 50 28.4 43% 45 29.88 0.0
04 16:35 Vrbl 6 G 17 10.00 Partly Cloudy FEW049 SCT060 SCT090 51.8 24.8 35% 29.87 0.0
04 16:15 SW 9 G 21 10.00 Mostly Cloudy FEW049 FEW060 BKN090 50 24.8 37% 47 29.89 0.0
04 15:55 S 16 10.00 Mostly Cloudy FEW060 SCT090 BKN110 50 26.6 40% 45 29.89 0.0
04 15:35 SW 16 G 25 10.00 Overcast SCT055 BKN090 OVC110 48.2 28.4 46% 43 29.89 0.0
04 15:15 SW 20 10.00 Overcast OVC050 50 28.4 43% 44 29.9 0.0
04 14:55 Vrbl 6 10.00 Mostly Cloudy BKN050 BKN055 50 26.6 40% 48 29.9 0.0
04 14:35 W 20 10.00 A Few Clouds FEW055 50 26.6 40% 44 29.89 0.0
04 14:15 W 21 10.00 Thunderstorm and Breezy CLR 48.2 28.4 46% 42 29.9 0.0
04 13:55 W 23 10.00 A Few Clouds and Breezy FEW045 FEW060 FEW095 46.4 30.2 53% 39 29.91 0.0
04 13:35 W 15 10.00 Mostly Cloudy FEW016 SCT021 BKN034 44.6 30.2 57% 38 29.92 0.0
04 13:15 W 15 10.00 Overcast SCT018 BKN023 OVC030 42.8 32 66% 36 29.94 0.0
04 12:55 NW 12 10.00 Overcast FEW025 BKN030 OVC055 44.6 28.4 53% 39 29.94 0.0
04 12:35 N 12 10.00 Overcast SCT055 BKN065 OVC075 46.4 26.6 46% 42 29.94 0.0
04 12:15 NW 8 10.00 Mostly Cloudy FEW021 SCT029 BKN075 46.4 26.6 46% 43 29.93 0.0
04 11:55 N 13 10.00 Overcast FEW023 BKN030 OVC090 46.4 28.4 50% 41 29.93 0.0
04 11:35 W 18 G 25 10.00 Mostly Cloudy FEW034 SCT065 BKN085 46.4 28.4 50% 40 29.92 0.0
04 11:15 W 24 10.00 Thunderstorm in Vicinity and Breezy BKN060 BKN075 46.4 32 57% 39 29.92 0.0
04 10:55 NW 15 G 25 10.00 A Few Clouds FEW043 FEW049 FEW055 51.8 32 47% 29.91 0.0
04 10:35 NE 13 10.00 Mostly Cloudy BKN046 BKN055 BKN075 53.6 32 44% 29.9 0.0
04 10:15 Vrbl 6 10.00 Overcast BKN047 BKN055 OVC100 51.8 30.2 44% 29.9 0.0
04 09:55 SE 8 G 17 10.00 Mostly Cloudy BKN045 BKN100 51.8 30.2 44% 29.89 0.0
04 09:35 Calm 10.00 Partly Cloudy SCT046 50 30.2 47% 29.89 0.0
04 09:15 Calm 10.00 Fair CLR 50 30.2 47% 29.9 0.0
04 08:55 NW 6 10.00 Fair CLR 50 30.2 47% 48 29.91 0.0
04 08:35 Vrbl 6 10.00 Partly Cloudy SCT050 SCT060 48.2 30.2 50% 46 29.91 0.0
04 08:15 W 8 10.00 Mostly Cloudy BKN050 46.4 32 57% 43 29.92 0.0
04 07:55 W 10 10.00 A Few Clouds FEW050 46.4 32 57% 42 29.92 0.0
04 07:35 NW 9 10.00 Fair CLR 46.4 32 57% 42 29.92 0.0
04 07:15 Calm 10.00 Partly Cloudy SCT049 41 33.8 76% 29.92 0.0
04 06:55 Calm 10.00 Mostly Cloudy BKN049 39.2 33.8 81% 29.92 0.0
04 06:35 Calm 10.00 A Few Clouds FEW075 35.6 32 87% 29.92 0.0
04 06:15 W 8 10.00 Mostly Cloudy FEW060 BKN075 37.4 32 81% 32 29.92 0.0
04 05:55 W 9 9.00 Light Rain FEW015 SCT031 BKN060 37.4 32 81% 31 29.92 0.0
04 05:35 Vrbl 5 10.00 Mostly Cloudy FEW046 SCT055 BKN075 35.6 30.2 81% 32 29.92 0.0
04 05:15 W 13 10.00 Fair CLR 35.6 30.2 81% 28 29.92 0.0
Date Time (pdt) Wind (mph) Vis. (mi.) Weather Sky Cond. Air Dwpt Max. Min. Relative Humidity Wind Chill (°F) Heat Index (°F) altimeter (in) sea level (mb) 1 hr 3 hr 6 hr
6 hour
Temperature (ºF) Pressure Precipitation (in)